www.pogodaiklimat.ru

Погода и климат >> Архив погоды >> Россия >> Якутия >> Сеген-Кюель


АРХИВ ПОГОДЫ в Сеген-Кюеле

Время (UTC), дата Ветер
(напр.,м/с)
 
Видим.   Явления Облачность Т
(С)
Тd
(С)
f
(%)
Тe
(С)
Тes
(С)
Комфортность P
(гПа)
Po
(гПа)
Тmin
(С)
Tmax
(С)
R
(мм)
R24
(мм)
S
(см)
00 17.01 штиль 0 20 км туман на расстоянии ясно -48.4 -51.2 72 -48 -48 опасность
обморожения
1035.0 1002.7 -49.2 37
03 17.01 штиль 0 50 км ясно -46.3 -49.2 72 -46 -46 опасность
обморожения
1033.6 1001.8
06 17.01 штиль 0 20 км туман на расстоянии 5/0
[Ci fib]
-45.0 -48.4 68 -45 -45 опасность
обморожения
1032.2 1000.5
09 17.01 штиль 0 20 км туман на расстоянии 3/0
[Ci fib]
-46.4 -49.2 73 -46 -46 опасность
обморожения
1031.7 999.9
12 17.01 штиль 0 20 км туман на расстоянии 8/0
[Ci fib]
-45.2 -48.4 70 -45 -45 опасность
обморожения
1030.8 999.1 -45.0
15 17.01 штиль 0 20 км туман на расстоянии 6/0
[Ci fib]
-44.8 -48.4 67 -45 -45 опасность
обморожения
1029.5 997.8
18 17.01 штиль 0 20 км туман на расстоянии 8/0
[Ci fib]
-44.2 -47.6 69 -44 -44 опасность
обморожения
1027.9 996.6
21 17.01 штиль 0 20 км туман на расстоянии ясно -45.8 -49.2 68 -46 -46 опасность
обморожения
1027.4 995.7
00 18.01 штиль 0 20 км туман на расстоянии 3/0
[Ci fib]
-46.1 -49.2 71 -46 -46 опасность
обморожения
1027.0 995.3 -46.7 37
03 18.01 штиль 0 50 км 8/0
[Ci fib]
-43.6 -46.9 70 -44 -43 опасность
обморожения
1025.2 993.9
06 18.01 штиль 0 50 км 8/0
[Ci fib]
-41.2 -43.8 76 -41 -41 опасность
обморожения
1024.5 993.5
09 18.01 штиль 0 50 км 10/0
[Cs]
-42.9 -45.6 75 -43 -43 опасность
обморожения
1024.8 993.6
12 18.01 штиль 0 20 км туман на расстоянии 10/0
[Ci fib]
-44.3 -47.6 69 -44 -44 опасность
обморожения
1025.2 993.9 -41.2
15 18.01 штиль 0 20 км туман на расстоянии 4/0
[Ci fib]
-45.6 -49.2 67 -46 -46 опасность
обморожения
1025.6 993.9
18 18.01 штиль 0 10 км туман на расстоянии ясно -46.3 -49.2 72 -46 -46 опасность
обморожения
1025.8 994.1
21 18.01 штиль 0 20 км туман на расстоянии ясно -46.7 -50.2 67 -47 -47 опасность
обморожения
1026.4 994.6
00 19.01 штиль 0 20 км туман на расстоянии ясно -47.5 -51.2 65 -48 -48 опасность
обморожения
1027.4 995.5 -47.8 37
03 19.01 штиль 0 10 км туман на расстоянии ясно -45.2 -47.8 75 -45 -45 опасность
обморожения
1027.5 996.0
06 19.01 штиль 0 20 км туман на расстоянии ясно -43.3 -46.3 72 -43 -43 опасность
обморожения
1027.5 996.3
09 19.01 штиль 0 10 км туман на расстоянии ясно -46.0 -49.2 70 -46 -46 опасность
обморожения
1029.3 997.5
12 19.01 штиль 0 20 км туман на расстоянии ясно -47.1 -50.2 70 -47 -47 опасность
обморожения
1029.8 997.8 -43.3
15 19.01 штиль 0 20 км туман на расстоянии ясно -47.9 -51.2 68 -48 -48 опасность
обморожения
1029.6 997.5
18 19.01 штиль 0 20 км туман на расстоянии 10/0
[Ac trans Ci fib]
-47.7 -50.6 72 -48 -48 опасность
обморожения
1028.8 996.9
21 19.01 штиль 0 20 км туман на расстоянии 10/0
[Ac trans Ci fib]
-46.0 -48.6 75 -46 -46 опасность
обморожения
1028.0 996.3
00 20.01 штиль 0 20 км туман на расстоянии 10/0
[Ac trans Ci fib]
-44.9 -47.8 72 -45 -45 опасность
обморожения
1026.5 995.0 -48.4 37
03 20.01 штиль 0 50 км 10/0
[Ac trans Ci fib]
-39.8 -42.8 73 -40 -40 опасность
обморожения
1024.1 993.3
06 20.01 штиль 0 50 км 10/0
[Ac trans Ci fib]
-38.2 -40.9 76 -38 -38 опасность
обморожения
1021.9 991.5
09 20.01 штиль 0 50 км 10/0
[Ac trans Ci fib]
-40.0 -42.8 74 -40 -40 опасность
обморожения
1021.7 991.0
12 20.01 штиль 0 20 км слаб. снег 10/0
[Cs]
-40.2 -42.8 76 -40 -40 опасность
обморожения
1021.1 990.4 -38.2 0.2
15 20.01 штиль 0 50 км {снег} 10/0
[Ci fib]
-42.3 -45.0 75 -42 -42 опасность
обморожения
1019.6 988.7
18 20.01 штиль 0 50 км {снег} 5/0
[Ci fib]
-43.3 -46.3 72 -43 -43 опасность
обморожения
1019.4 988.3
21 20.01 штиль 0 20 км туман на расстоянии 4/0
[Ac trans Ci fib]
-43.2 -45.6 77 -43 -43 опасность
обморожения
1019.3 988.2
00 21.01 штиль 0 20 км туман на расстоянии ясно -43.7 -46.3 75 -44 -44 опасность
обморожения
1019.4 988.2 -44.0 0.0 37
03 21.01 штиль 0 50 км ясно -41.1 -43.8 75 -41 -41 опасность
обморожения
1017.7 987.1
06 21.01 З 1 50 км 1/0
[Ci fib]
-35.7 -38.7 74 -40 -40 опасность
обморожения
1016.5 986.5
09 21.01 З 1 20 км туман на расстоянии 4/0
[Ci fib]
-40.1 -42.8 75 -45 -45 опасность
обморожения
1017.8 987.3
12 21.01 штиль 0 20 км туман на расстоянии 4/0
[Ci fib]
-43.1 -45.6 76 -43 -43 опасность
обморожения
1018.6 987.5 -35.5
15 21.01 штиль 0 50 км ясно -44.1 -47.0 73 -44 -44 опасность
обморожения
1020.3 989.1
18 21.01 штиль 0 20 км туман на расстоянии 1/0
[Ci fib]
-44.5 -47.0 76 -45 -45 опасность
обморожения
1022.0 990.6
21 21.01 штиль 0 10 км туман на расстоянии 3/0
[Ci fib]
-44.1 -47.0 73 -44 -44 опасность
обморожения
1023.6 992.4
00 22.01 З 1 50 км 3/0
[Ac trans Ci fib]
-44.4 -47.0 75 -50 -50 опасность
обморожения
1024.4 993.1 -45.2 37
03 22.01 З 1 50 км 10/0
[Ac trans Ci fib]
-37.2 -40.1 74 -42 -42 опасность
обморожения
1024.0 993.6
06 22.01 З 1 50 км 10/0
[Ac trans Ci fib]
-30.1 -33.2 74 -34 -34 опасность
обморожения
1024.3 994.8
09 22.01 З 1 50 км 4/0
[Ci fib]
-33.1 -36.0 75 -38 -38 опасность
обморожения
1026.4 996.5
12 22.01 З 1 50 км 3/0
[Ac trans Ci fib]
-34.3 -37.1 76 -39 -39 опасность
обморожения
1027.3 997.3 -30.1
15 22.01 З 1 50 км 5/0
[Ac trans]
-30.1 -33.2 74 -34 -34 опасность
обморожения
1027.8 998.1
18 22.01 З 1 50 км ясно -31.0 -34.1 74 -35 -35 опасность
обморожения
1028.8 999.0
21 22.01 штиль 0 50 км 3/0
[Ci fib]
-33.5 -36.6 73 -34 -34 опасность
обморожения
1030.5 1000.3
00 23.01 штиль 0 50 км 1/0
[Ci fib]
-34.8 -37.7 75 -35 -35 опасность
обморожения
1031.3 1001.0 -35.2 37
03 23.01 ЮВ 1 50 км 3/0
[Ac trans Ci fib]
-33.0 -36.0 74 -37 -37 опасность
обморожения
1031.9 1001.8
06 23.01 штиль 0 50 км 3/0
[Ac trans Ci fib]
-32.0 -35.0 75 -32 -32 опасность
обморожения
1032.3 1002.4
09 23.01 штиль 0 50 км 1/0
[Ac trans]
-35.0 -38.0 74 -35 -35 опасность
обморожения
1033.8 1003.3
12 23.01 штиль 0 50 км 3/0
[Ci fib]
-37.4 -40.1 76 -37 -37 опасность
обморожения
1034.0 1003.3 -32.0
15 23.01 штиль 0 50 км ясно -38.5 -41.4 74 -39 -39 опасность
обморожения
1035.0 1004.0
18 23.01 штиль 0 50 км ясно -39.6 -42.3 75 -40 -40 опасность
обморожения
1036.0 1004.9
21 23.01 штиль 0 50 км ясно -41.4 -44.4 72 -41 -41 опасность
обморожения
1037.1 1005.8

 

Местоположение метеостанции Сеген-Кюель (Якутия, Россия): широта 64.00 долгота 130.30 высота над уровнем моря 208 м.

В архиве по умолчанию представлена погода в Сеген-Кюеле за последнюю неделю. Архивные данные за месяц целиком и за предыдущие месяцы, начиная с января 2011 года, Вы можете получить, выбрав интересующий диапазон дат из раскрывающегося списка и нажав кнопку "Ввод!".


*Определитесь, кто Вы:
робот инопланетянин человек

Внимание! Время в таблицах - всемирное. Для получения местного времени необходимо прибавить поправку, которая равна 9 ч.

Смотрите также архив погоды в соседних городах и на ближайших метеорологических станциях:

Погода в Батамае (Якутия, Россия) (69 км)
Погода в Верхоянском Перевозе (Якутия, Россия) (113 км)
Погода в Сангаре (Якутия, Россия) (142 км)
Погода в Себян-Кюеле (Якутия, Россия) (145 км)
Погода в Намцах (Якутия, Россия) (147 км)
Погода в Сого-Хае (Якутия, Россия) (192 км)
Погода в Якутске (Якутия, Россия) (225 км)
Погода в Ытык-Кюёле (Якутия, Россия) (242 км)
Погода в Крест-Хальджае (Якутия, Россия) (243 км)
Погода в Чурапче (Якутия, Россия) (248 км)

Пояснения к столбцам:

Ветер - указаны скорость ветра в м/с - средняя за 10 мин, порывы в срок и между сроками (в фигурных скобках) и направление, откуда дует ветер: С - северный, СВ - северо-восточный, В - восточный, ЮВ - юго-восточный, Ю - южный, ЮЗ - юго-западный, З - западный, СЗ - северо-западный.
Видимость - горизонтальная дальность видимости в метрах или километрах. При видимости от 1 до 10 км при отсутствии осадков обычно наблюдается дымка, при ухудшении видимости до 1 км и менее - туман. В сухую погоду видимость может ухудшаться дымом, пылью или мглою.
Явления - указаны атмосферные явления, наблюдавшиеся в срок или в последний час перед сроком; фигурными скобками обозначены явления, наблюдавшиеся между сроками (за 1-3 часа до срока); квадратными скобками обозначены град или гололедные отложения с указанием их диаметра в мм.
Облачность - указаны через наклонную черту общая и нижняя облачность в баллах и высота нижней границы облаков в метрах; квадратными скобками обозначены формы облаков: Ci - перистые, Cs - перисто-слоистые, Cc - перисто-кучевые, Ac - высококучевые, As - высокослоистые, Sc - слоисто-кучевые, Ns - слоисто-дождевые, Cu - кучевые, Cb - кучево-дождевые. Подробнее классификацию облаков см. в Атласе облаков (PDF).
T - Температура воздуха - температура, измеренная на высоте 2 м над землей.
Td - Температура точки росы - температура, при понижении до которой содержащийся в воздухе водяной пар достигнет насыщения.
f - Относительная влажность воздуха - влажноcть воздуха, измеренная на высоте 2 м над землей.
Te - Эффективная температура - температура, которую ощущает одетый по сезону человек в тени. Характеристика душности погоды. При расчете учитывается влияние влажности воздуха и скорости ветра на теплоощущения человека.
Tes - Эффективная температура на солнце - температура, которую ощущает человек, с поправкой на солнечный нагрев. Характеристика знойности погоды. Зависит от высоты солнца над горизонтом, облачности и скорости ветра. Ночью, в пасмурную погоду, а также при ветре 12 м/с и более поправка равна нулю.
P - Атмосферное давление - приведенное к уровню моря атмосферное давление.
Po - Атмосферное давление - измеренное на уровне метеостанции атмосферное давление.
Tmin - Минимальная температура - минимум температуры воздуха на высоте 2 м над землей.
Tmax - Максимальная температура - максимум температуры воздуха на высоте 2 м над землей.
R - Количество осадков - Количество выпавших осадков за период времени, мм. При наведении курсора мыши на число - период времени, за который выпало указанное количество осадков.
R24 - Количество осадков - Количество выпавших осадков за 24 часа, мм.
S - Снежный покров - Высота снежного покрова, см. При наведении курсора мыши на число - состояние снежного покрова и степень покрытия местности в баллах.